Crescent City, CA

9:02 PM PDT on September 27, 2016 (GMT -0700)
McNamara

Weather History for KCEC - July, 2012

Change the Weather History Date:

Tuesday, July 17, 2012

  Actual Average Record
Temperature  
Mean Temperature 57 °F 56 °F  
Max Temperature 61 °F 61 °F 76 °F (1972)
Min Temperature 52 °F 51 °F 43 °F (1949)
Degree Days  
Heating Degree Days 8 9  
Month to date heating degree days 131 153  
Since 1 June heating degree days 458 462  
Since 1 July heating degree days 131 153  
Cooling Degree Days 0 0  
Month to date cooling degree days 0 0  
Year to date cooling degree days 0 0  
Since 1 June cooling degree days 0 0  
Growing Degree Days 6 (Base 50)    
Moisture  
Dew Point 55 °F    
Average Humidity 92    
Maximum Humidity 100    
Minimum Humidity 84    
Precipitation  
Precipitation 0.26 in 0.01 in 0.36 in (2007)
Month to date precipitation 0.26 0.30  
Year to date precipitation 43.64 37.23  
Since 1 July precipitation 0.26  
Snow  
Snow 0.00 in - - ()
Month to date snowfall 0.0  
Since 1 June snowfall 0.0  
Since 1 July snowfall 0.0  
Snow Depth 0.00 in    
Sea Level Pressure  
Sea Level Pressure 29.98 in    
Wind  
Wind Speed 4 mph (South)    
Max Wind Speed 10 mph    
Max Gust Speed 14 mph    
Visibility 8 miles    
Events Fog , Rain    
T = Trace of Precipitation, MM = Missing Value Source: NWS Daily Summary

Daily Weather History Graph

Daily Weather History Graph

Search for Another Location

Airport or City:

Trip Planner

Search our weather history database for the weather conditions in past years. The results will help you decide how hot, cold, wet, or windy it might be!

Date:

Astronomy

Jul. 17, 2012 Rise Set
Actual Time 5:57 AM PDT 8:48 PM PDT
Civil Twilight 5:24 AM PDT 9:21 PM PDT
Nautical Twilight 4:43 AM PDT 10:02 PM PDT
Astronomical Twilight 3:54 AM PDT 10:50 PM PDT
Moon 4:39 AM PDT (7/17) 7:41 PM PDT (7/17)
Length of Visible Light 15h 56m
Length of Day
14h 50m
Waning Crescent, 2% of the Moon is Illuminated
Jul 17
Waning Crescent
Jul 18
New
Jul 26
First Quarter
Aug 1
Full
Aug 9
Last Quarter

Hourly Weather History & Observations

Time (PDT) Temp. Dew Point Humidity Pressure Visibility Wind Dir Wind Speed Gust Speed Precip Events Conditions
12:56 AM 55.0 °F 54.0 °F 96% 29.88 in 9.0 mi South 4.6 mph - N/A   Overcast
1:48 AM 55.4 °F 53.6 °F 94% 29.88 in 10.0 mi South 4.6 mph - N/A   Overcast
1:56 AM 55.0 °F 54.0 °F 96% 29.88 in 10.0 mi South 4.6 mph - N/A   Overcast
2:40 AM 55.4 °F 53.6 °F 94% 29.87 in 10.0 mi South 3.5 mph - 0.00 in Rain Light Rain
2:47 AM 55.4 °F 53.6 °F 94% 29.87 in 10.0 mi South 3.5 mph - 0.00 in   Overcast
2:56 AM 55.0 °F 54.0 °F 96% 29.87 in 10.0 mi SSE 3.5 mph - 0.00 in   Overcast
3:56 AM 55.0 °F 54.0 °F 96% 29.87 in 10.0 mi South 5.8 mph - 0.00 in Rain Light Rain
4:56 AM 55.0 °F 54.0 °F 96% 29.88 in 2.5 mi SSW 3.5 mph - 0.10 in Rain Heavy Rain
5:07 AM 55.4 °F 53.6 °F 94% 29.88 in 4.0 mi South 3.5 mph - 0.03 in Rain Rain
5:56 AM 55.0 °F 54.0 °F 96% 29.90 in 6.0 mi South 4.6 mph - 0.10 in Rain Light Rain
6:56 AM 55.0 °F 54.0 °F 96% 29.90 in 10.0 mi SE 3.5 mph - 0.01 in Rain Light Rain
7:41 AM 55.4 °F 55.4 °F 100% 29.91 in 10.0 mi SSE 3.5 mph - 0.00 in   Overcast
7:56 AM 57.0 °F 55.9 °F 96% 29.92 in 10.0 mi Calm Calm - 0.00 in   Overcast
8:48 AM 57.2 °F 55.4 °F 94% 29.93 in 9.0 mi WNW 3.5 mph - 0.00 in Rain Light Rain
8:56 AM 57.0 °F 55.0 °F 93% 29.93 in 10.0 mi WNW 3.5 mph - 0.00 in Rain Light Rain
9:05 AM 57.2 °F 55.4 °F 94% 29.93 in 10.0 mi WNW 3.5 mph - N/A   Overcast
9:16 AM 57.2 °F 55.4 °F 94% 29.93 in 8.0 mi NW 3.5 mph - N/A   Overcast
9:41 AM 57.2 °F 55.4 °F 94% 29.94 in 10.0 mi SSW 4.6 mph - N/A   Overcast
9:56 AM 57.9 °F 55.0 °F 90% 29.94 in 10.0 mi SW 4.6 mph - N/A   Overcast
10:13 AM 57.2 °F 55.4 °F 94% 29.94 in 10.0 mi SW 3.5 mph - N/A   Overcast
10:56 AM 57.0 °F 54.0 °F 89% 29.96 in 10.0 mi South 6.9 mph - N/A   Overcast
11:41 AM 57.2 °F 55.4 °F 94% 29.97 in 10.0 mi South 10.4 mph - 0.00 in   Overcast
11:56 AM 57.0 °F 55.0 °F 93% 29.97 in 10.0 mi South 8.1 mph - 0.00 in   Overcast
12:25 PM 57.2 °F 55.4 °F 94% 29.98 in 10.0 mi South 8.1 mph - N/A   Overcast
12:35 PM 57.2 °F 55.4 °F 94% 29.98 in 10.0 mi SSE 8.1 mph - N/A   Overcast
12:56 PM 57.9 °F 55.0 °F 90% 29.99 in 10.0 mi SSE 8.1 mph - 0.00 in Rain Light Rain
1:07 PM 57.2 °F 55.4 °F 94% 29.99 in 10.0 mi South 8.1 mph - N/A   Overcast
1:21 PM 57.2 °F 55.4 °F 94% 30.00 in 10.0 mi South 9.2 mph - 0.00 in   Overcast
1:35 PM 57.2 °F 55.4 °F 94% 30.00 in 10.0 mi South 8.1 mph - 0.00 in   Overcast
1:47 PM 57.2 °F 55.4 °F 94% 30.00 in 8.0 mi South 8.1 mph - 0.00 in Rain Light Rain
1:56 PM 57.0 °F 55.0 °F 93% 30.01 in 5.0 mi South 6.9 mph - 0.01 in Rain Rain
2:05 PM 57.2 °F 55.4 °F 94% 30.01 in 5.0 mi South 9.2 mph - N/A Rain Light Rain
2:23 PM 57.2 °F 55.4 °F 94% 30.01 in 6.0 mi South 6.9 mph - 0.03 in Rain Light Rain
2:56 PM 57.9 °F 57.0 °F 97% 30.02 in 8.0 mi South 5.8 mph - 0.04 in Rain Light Rain
3:31 PM 57.2 °F 57.2 °F 100% 30.01 in 2.5 mi SSW 4.6 mph - 0.00 in   Overcast
3:39 PM 59.0 °F 57.2 °F 94% 30.02 in 10.0 mi SSE 6.9 mph - 0.00 in   Overcast
3:51 PM 59.0 °F 57.2 °F 94% 30.02 in 10.0 mi South 4.6 mph - 0.00 in   Mostly Cloudy
3:56 PM 59.0 °F 57.9 °F 96% 30.02 in 10.0 mi SW 3.5 mph - 0.00 in   Mostly Cloudy
4:56 PM 60.1 °F 55.9 °F 86% 30.02 in 10.0 mi SW 5.8 mph - N/A   Overcast
5:56 PM 59.0 °F 55.0 °F 87% 30.02 in 10.0 mi South 4.6 mph - N/A   Overcast
6:19 PM 59.0 °F 55.4 °F 88% 30.02 in 10.0 mi South 3.5 mph - N/A   Overcast
6:35 PM 57.2 °F 55.4 °F 94% 30.02 in 10.0 mi South 3.5 mph - N/A   Overcast
6:56 PM 57.9 °F 55.0 °F 90% 30.02 in 10.0 mi SSW 5.8 mph - N/A   Overcast
7:21 PM 57.2 °F 55.4 °F 94% 30.02 in 10.0 mi SW 3.5 mph - N/A   Overcast
7:56 PM 57.9 °F 55.0 °F 90% 30.02 in 10.0 mi Calm Calm - N/A   Mostly Cloudy
8:11 PM 57.2 °F 53.6 °F 88% 30.02 in 10.0 mi Calm Calm - N/A   Scattered Clouds
8:18 PM 57.2 °F 53.6 °F 88% 30.02 in 10.0 mi Calm Calm - N/A   Scattered Clouds
8:56 PM 55.4 °F 53.6 °F 94% 30.03 in 10.0 mi Calm Calm - N/A   Clear
9:49 PM 51.8 °F 51.8 °F 100% 30.03 in 1.8 mi Calm Calm - N/A   Clear
9:54 PM 53.6 °F 51.8 °F 94% 30.03 in 0.8 mi Calm Calm - N/A   Clear
9:56 PM 52.0 °F 51.1 °F 97% 30.04 in 0.8 mi Calm Calm - N/A   Mist
10:16 PM 53.6 °F 53.6 °F 100% 30.04 in 1.2 mi Calm Calm - N/A   Partly Cloudy
10:20 PM 53.6 °F 53.6 °F 100% 30.04 in 2.0 mi Calm Calm - N/A   Partly Cloudy
10:30 PM 53.6 °F 51.8 °F 94% 30.04 in 1.8 mi Calm Calm - N/A   Scattered Clouds
10:34 PM 53.6 °F 51.8 °F 94% 30.04 in 3.0 mi Calm Calm - N/A   Scattered Clouds
10:43 PM 53.6 °F 53.6 °F 100% 30.04 in 5.0 mi Calm Calm - 0.00 in Rain Light Rain
10:48 PM 53.6 °F 51.8 °F 94% 30.04 in 1.2 mi Calm Calm - 0.00 in Rain Light Rain
10:56 PM 53.1 °F 52.0 °F 96% 30.05 in 0.2 mi Calm Calm - 0.00 in Fog , Rain Light Rain
11:56 PM 52.0 °F 52.0 °F 100% 30.06 in 0.2 mi WNW 3.5 mph - 0.00 in Fog Fog